Big Bear Station Historical Data
Daily Summary for February 22, 2017 Units:  English    Metric   Both
Next Day »
Daily Weekly Monthly Yearly Custom
  High: Low: Average:
Temperature: 43.2 °F 22.5 °F 32.6 °F
Dew Point: 31.6 °F 7.1 °F 20.1 °F
Humidity: 95% 23% 64%
Wind Speed: 8.9mph 0.0mph 3.2mph
Wind Gust: -999.0mph - -
Wind- - WSW
Pressure: 30.23 in 29.98 in -
Precipitation: 0.00 in    
Historical Graphs
 
 
Tabular Data for February 22, 2017
Time Temperature Dew Point Pressure Wind Wind Speed Wind Gust Humidity Rainfall Rate (Hourly)
00:13 32.9 °F 31.6 °F 30.23 in Calm   -999.0 mph 95% 0 in
00:29 32.7 °F 31.4 °F 30.22 in Calm   -999.0 mph 95% 0 in
00:44 33.4 °F 31.6 °F 30.22 in SSW 1.1 mph -999.0 mph 93% 0 in
01:00 32.5 °F 30.7 °F 30.21 in Calm   -999.0 mph 93% 0 in
01:15 32.9 °F 31.1 °F 30.21 in Calm   -999.0 mph 93% 0 in
01:31 33.4 °F 30.5 °F 30.21 in South 2.2 mph -999.0 mph 89% 0 in
01:46 32.7 °F 29.8 °F 30.20 in Calm   -999.0 mph 89% 0 in
02:01 32.7 °F 28.7 °F 30.20 in Calm   -999.0 mph 85% 0 in
02:16 32.5 °F 30.2 °F 30.19 in Calm   -999.0 mph 91% 0 in
02:32 32.4 °F 27.8 °F 30.18 in Calm   -999.0 mph 83% 0 in
02:49 32.4 °F 27.5 °F 30.18 in SSE 2.2 mph -999.0 mph 82% 0 in
03:04 31.8 °F 26.3 °F 30.18 in SSW 2.7 mph -999.0 mph 80% 0 in
03:19 31.5 °F 25.4 °F 30.17 in SSE 1.7 mph -999.0 mph 78% 0 in
03:34 31.5 °F 23.5 °F 30.17 in South 1.1 mph -999.0 mph 72% 0 in
03:49 31.5 °F 20.3 °F 30.16 in SW 1.7 mph -999.0 mph 63% 0 in
04:05 32.5 °F 16.8 °F 30.16 in SSW 2.2 mph -999.0 mph 52% 0 in
04:20 33.8 °F 15.7 °F 30.15 in South 3.2 mph -999.0 mph 47% 0 in
04:35 32.7 °F 12.6 °F 30.15 in Calm   -999.0 mph 43% 0 in
04:50 33.1 °F 14.5 °F 30.15 in South 1.7 mph -999.0 mph 46% 0 in
05:08 32.9 °F 12.8 °F 30.14 in SSE 2.7 mph -999.0 mph 43% 0 in
05:23 32.9 °F 14.9 °F 30.14 in SSE 2.2 mph -999.0 mph 47% 0 in
05:38 33.4 °F 12.2 °F 30.13 in Calm   -999.0 mph 41% 0 in
05:54 33.4 °F 13.3 °F 30.13 in South 1.7 mph -999.0 mph 43% 0 in
06:09 33.1 °F 7.1 °F 30.13 in Calm   -999.0 mph 33% 0 in
06:25 33.1 °F 15.0 °F 30.13 in SW 1.7 mph -999.0 mph 47% 0 in
06:40 32.2 °F 15.6 °F 30.12 in South 2.2 mph -999.0 mph 50% 0 in
06:56 31.8 °F 10.2 °F 30.12 in SW 1.7 mph -999.0 mph 40% 0 in
07:11 32.7 °F 11.0 °F 30.12 in Calm   -999.0 mph 40% 0 in
07:26 33.6 °F 15.0 °F 30.12 in NNW 2.2 mph -999.0 mph 46% 0 in
07:41 34.0 °F 17.8 °F 30.11 in WSW 2.2 mph -999.0 mph 51% 0 in
07:57 34.5 °F 12.6 °F 30.11 in North 3.7 mph -999.0 mph 40% 0 in
08:14 35.4 °F 17.2 °F 30.11 in NW 2.7 mph -999.0 mph 47% 0 in
08:30 35.6 °F 19.7 °F 30.11 in NNW 1.7 mph -999.0 mph 52% 0 in
08:45 35.4 °F 18.1 °F 30.11 in NW 4.7 mph -999.0 mph 49% 0 in
09:02 35.8 °F 15.5 °F 30.11 in West 3.2 mph -999.0 mph 43% 0 in
09:20 36.0 °F 16.7 °F 30.11 in NNE 1.7 mph -999.0 mph 45% 0 in
09:35 36.7 °F 18.3 °F 30.11 in NW 2.2 mph -999.0 mph 47% 0 in
09:52 38.1 °F 15.3 °F 30.10 in NNW 4.7 mph -999.0 mph 39% 0 in
10:10 39.2 °F 15.7 °F 30.10 in NNW 4.2 mph -999.0 mph 38% 0 in
10:25 41.4 °F 13.0 °F 30.10 in NW 4.7 mph -999.0 mph 31% 0 in
10:43 41.2 °F 11.3 °F 30.10 in NW 1.7 mph -999.0 mph 29% 0 in
11:00 42.1 °F 10.5 °F 30.09 in WNW 1.7 mph -999.0 mph 27% 0 in
11:15 42.4 °F 9.0 °F 30.09 in NW 3.2 mph -999.0 mph 25% 0 in
11:32 42.3 °F 7.1 °F 30.08 in NNE 2.7 mph -999.0 mph 23% 0 in
11:47 43.0 °F 10.4 °F 30.08 in NNW 5.3 mph -999.0 mph 26% 0 in
12:02 43.0 °F 9.5 °F 30.07 in SSW 2.7 mph -999.0 mph 25% 0 in
12:18 43.2 °F 10.6 °F 30.05 in NW 8.9 mph -999.0 mph 26% 0 in
12:33 41.2 °F 14.2 °F 30.05 in NNE 4.7 mph -999.0 mph 33% 0 in
12:48 40.5 °F 18.1 °F 30.04 in NW 6.3 mph -999.0 mph 40% 0 in
13:03 39.6 °F 16.7 °F 30.04 in NNW 5.3 mph -999.0 mph 39% 0 in
13:19 39.7 °F 19.0 °F 30.03 in North 4.2 mph -999.0 mph 43% 0 in
13:34 37.9 °F 17.9 °F 30.03 in WSW 2.2 mph -999.0 mph 44% 0 in
13:50 36.5 °F 23.9 °F 30.02 in SSE 8.3 mph -999.0 mph 60% 0 in
14:05 36.1 °F 25.1 °F 30.02 in SW 5.8 mph -999.0 mph 64% 0 in
14:21 36.1 °F 25.1 °F 30.01 in West 4.7 mph -999.0 mph 64% 0 in
14:36 36.1 °F 24.7 °F 30.01 in WSW 6.8 mph -999.0 mph 63% 0 in
14:51 35.1 °F 25.6 °F 30.01 in East 2.2 mph -999.0 mph 68% 0 in
15:06 35.2 °F 26.0 °F 30.01 in West 2.7 mph -999.0 mph 69% 0 in
15:21 34.2 °F 25.8 °F 30.00 in West 4.7 mph -999.0 mph 71% 0 in
15:37 33.6 °F 24.2 °F 30.00 in SW 4.2 mph -999.0 mph 68% 0 in
15:52 33.4 °F 25.0 °F 30.00 in NNW 2.7 mph -999.0 mph 71% 0 in
16:09 33.1 °F 25.1 °F 29.99 in NNE 5.3 mph -999.0 mph 72% 0 in
16:25 32.4 °F 24.7 °F 29.99 in SSW 2.7 mph -999.0 mph 73% 0 in
16:42 31.6 °F 24.9 °F 29.99 in SSW 3.7 mph -999.0 mph 76% 0 in
16:57 31.3 °F 25.5 °F 29.99 in West 2.7 mph -999.0 mph 79% 0 in
17:12 30.9 °F 25.8 °F 29.99 in WNW 5.8 mph -999.0 mph 81% 0 in
17:28 30.6 °F 25.2 °F 29.99 in West 2.7 mph -999.0 mph 80% 0 in
17:43 30.7 °F 25.9 °F 29.98 in NW 4.7 mph -999.0 mph 82% 0 in
17:58 30.4 °F 27.3 °F 29.98 in NW 5.3 mph -999.0 mph 88% 0 in
18:13 28.8 °F 26.5 °F 29.98 in NW 7.3 mph -999.0 mph 91% 0 in
18:28 28.4 °F 25.6 °F 29.99 in WNW 6.3 mph -999.0 mph 89% 0 in
18:44 28.4 °F 25.0 °F 29.99 in WSW 4.7 mph -999.0 mph 87% 0 in
18:59 27.1 °F 22.0 °F 30.00 in SW 2.7 mph -999.0 mph 81% 0 in
19:15 26.8 °F 21.8 °F 29.99 in SW 4.2 mph -999.0 mph 81% 0 in
19:30 26.2 °F 21.7 °F 30.00 in WSW 3.2 mph -999.0 mph 83% 0 in
19:45 26.4 °F 19.6 °F 30.00 in WNW 4.7 mph -999.0 mph 75% 0 in
20:01 26.2 °F 19.4 °F 29.99 in NW 7.3 mph -999.0 mph 75% 0 in
20:16 26.1 °F 18.9 °F 29.99 in West 5.3 mph -999.0 mph 74% 0 in
20:31 26.1 °F 19.6 °F 30.00 in WNW 4.2 mph -999.0 mph 76% 0 in
20:47 26.2 °F 20.3 °F 30.00 in NNW 6.8 mph -999.0 mph 78% 0 in
21:02 25.9 °F 20.6 °F 30.00 in NNE 6.8 mph -999.0 mph 80% 0 in
21:17 25.7 °F 20.4 °F 30.00 in West 4.2 mph -999.0 mph 80% 0 in
21:33 25.9 °F 21.2 °F 29.99 in North 6.3 mph -999.0 mph 82% 0 in
21:48 25.5 °F 20.2 °F 29.99 in West 5.8 mph -999.0 mph 80% 0 in
22:03 25.5 °F 19.6 °F 29.99 in North 4.7 mph -999.0 mph 78% 0 in
22:18 24.8 °F 19.2 °F 29.99 in SSW 2.2 mph -999.0 mph 79% 0 in
22:33 24.3 °F 19.3 °F 29.99 in NNW 4.2 mph -999.0 mph 81% 0 in
22:49 23.9 °F 19.5 °F 29.99 in SW 1.7 mph -999.0 mph 83% 0 in
23:04 23.7 °F 19.3 °F 29.99 in West 3.2 mph -999.0 mph 83% 0 in
23:20 23.2 °F 18.8 °F 30.00 in NNE 1.7 mph -999.0 mph 83% 0 in
23:35 22.6 °F 18.2 °F 29.99 in North 1.7 mph -999.0 mph 83% 0 in
23:50 22.5 °F 17.8 °F 29.98 in SSW 2.7 mph -999.0 mph 82% 0 in
Big Bear CA Weather